Time,TemperatureF,DewpointF,PressureIn,WindDirection,WindDirectionDegrees,WindSpeedMPH,WindSpeedGustMPH,Humidity,HourlyPrecipIn,Conditions,Clouds,dailyrainin,SoftwareType,DateUTC
2013-05-25 00:00:00,29.0,26.0,-100.00,NNE,20,12.0,15.0,90,-99.99,,,-99.99,,2013-05-25 07:00:00,
2013-05-25 00:52:00,29.0,26.0,-100.00,NNE,20,12.0,15.0,90,-99.99,,,-99.99,,2013-05-25 07:52:00,
2013-05-25 01:00:00,28.0,26.0,-100.00,NNE,23,13.0,18.0,92,-99.99,,,-99.99,,2013-05-25 08:00:00,
2013-05-25 01:52:00,28.0,26.0,-100.00,NNE,23,13.0,18.0,92,-99.99,,,-99.99,,2013-05-25 08:52:00,
2013-05-25 02:00:00,28.0,26.0,-100.00,North,360,12.0,17.0,93,-99.99,,,-99.99,,2013-05-25 09:00:00,
2013-05-25 02:53:00,28.0,26.0,-100.00,North,360,12.0,17.0,93,-99.99,,,-99.99,,2013-05-25 09:53:00,
2013-05-25 03:00:00,28.0,27.0,-100.00,NNW,339,13.0,16.0,96,-99.99,,,-99.99,,2013-05-25 10:00:00,
2013-05-25 03:52:00,28.0,27.0,-100.00,NNW,339,13.0,16.0,96,-99.99,,,-99.99,,2013-05-25 10:52:00,
2013-05-25 04:00:00,28.0,28.0,-100.00,NW,316,13.0,18.0,98,-99.99,,,-99.99,,2013-05-25 11:00:00,
2013-05-25 04:52:00,28.0,28.0,-100.00,NW,316,13.0,18.0,98,-99.99,,,-99.99,,2013-05-25 11:52:00,
2013-05-25 05:00:00,27.0,27.0,-100.00,ENE,73,12.0,15.0,98,-99.99,,,-99.99,,2013-05-25 12:00:00,
2013-05-25 05:52:00,27.0,27.0,-100.00,ENE,73,12.0,15.0,98,-99.99,,,-99.99,,2013-05-25 12:52:00,
2013-05-25 06:00:00,27.0,27.0,-100.00,North,354,13.0,16.0,98,-99.99,,,-99.99,,2013-05-25 13:00:00,
2013-05-25 06:52:00,27.0,27.0,-100.00,North,354,13.0,16.0,98,-99.99,,,-99.99,,2013-05-25 13:52:00,
2013-05-25 07:00:00,29.0,26.0,-100.00,North,1,12.0,16.0,89,-99.99,,,-99.99,,2013-05-25 14:00:00,
2013-05-25 07:52:00,29.0,26.0,-100.00,North,1,12.0,16.0,89,-99.99,,,-99.99,,2013-05-25 14:52:00,
2013-05-25 08:00:00,33.0,28.0,-100.00,ESE,118,12.0,18.0,81,-99.99,,,-99.99,,2013-05-25 15:00:00,
2013-05-25 08:53:00,33.0,28.0,-100.00,ESE,118,12.0,18.0,81,-99.99,,,-99.99,,2013-05-25 15:53:00,
2013-05-25 09:00:00,42.0,30.0,-100.00,SSW,200,12.0,17.0,61,-99.99,,,-99.99,,2013-05-25 16:00:00,
2013-05-25 09:52:00,42.0,30.0,-100.00,SSW,200,12.0,17.0,61,-99.99,,,-99.99,,2013-05-25 16:52:00,
2013-05-25 10:00:00,46.0,30.0,-100.00,WSW,247,12.0,17.0,53,-99.99,,,-99.99,,2013-05-25 17:00:00,
2013-05-25 10:52:00,46.0,30.0,-100.00,WSW,247,12.0,17.0,53,-99.99,,,-99.99,,2013-05-25 17:52:00,
2013-05-25 11:00:00,48.0,29.0,-100.00,South,184,12.0,16.0,47,-99.99,,,-99.99,,2013-05-25 18:00:00,
2013-05-25 11:52:00,48.0,29.0,-100.00,South,184,12.0,16.0,47,-99.99,,,-99.99,,2013-05-25 18:52:00,
2013-05-25 12:00:00,51.0,30.0,-100.00,WSW,249,10.0,14.0,44,-99.99,,,-99.99,,2013-05-25 19:00:00,
2013-05-25 12:52:00,51.0,30.0,-100.00,WSW,249,10.0,14.0,44,-99.99,,,-99.99,,2013-05-25 19:52:00,
2013-05-25 13:00:00,48.0,33.0,-100.00,WSW,237,8.0,12.0,55,-99.99,,,-99.99,,2013-05-25 20:00:00,
2013-05-25 13:52:00,48.0,33.0,-100.00,WSW,237,8.0,12.0,55,-99.99,,,-99.99,,2013-05-25 20:52:00,
2013-05-25 14:00:00,47.0,33.0,-100.00,West,267,7.0,13.0,57,-99.99,,,-99.99,,2013-05-25 21:00:00,
2013-05-25 14:53:00,47.0,33.0,-100.00,West,267,7.0,13.0,57,-99.99,,,-99.99,,2013-05-25 21:53:00,
2013-05-25 15:00:00,45.0,33.0,-100.00,West,278,9.0,15.0,62,-99.99,,,-99.99,,2013-05-25 22:00:00,
2013-05-25 15:52:00,45.0,33.0,-100.00,West,278,9.0,15.0,62,-99.99,,,-99.99,,2013-05-25 22:52:00,
2013-05-25 16:00:00,44.0,33.0,-100.00,NW,308,10.0,18.0,66,-99.99,,,-99.99,,2013-05-25 23:00:00,
2013-05-25 16:52:00,44.0,33.0,-100.00,NW,308,10.0,18.0,66,-99.99,,,-99.99,,2013-05-25 23:52:00,
2013-05-25 17:00:00,45.0,34.0,-100.00,NW,306,9.0,17.0,65,-99.99,,,-99.99,,2013-05-26 00:00:00,
2013-05-25 17:52:00,45.0,34.0,-100.00,NW,306,9.0,17.0,65,-99.99,,,-99.99,,2013-05-26 00:52:00,
2013-05-25 18:00:00,42.0,33.0,-100.00,WNW,291,7.0,15.0,69,-99.99,,,-99.99,,2013-05-26 01:00:00,
2013-05-25 18:52:00,42.0,33.0,-100.00,WNW,291,7.0,15.0,69,-99.99,,,-99.99,,2013-05-26 01:52:00,
2013-05-25 19:00:00,40.0,33.0,-100.00,NW,310,8.0,12.0,75,-99.99,,,-99.99,,2013-05-26 02:00:00,
2013-05-25 19:52:00,40.0,33.0,-100.00,NW,310,8.0,12.0,75,-99.99,,,-99.99,,2013-05-26 02:52:00,
2013-05-25 20:00:00,39.0,32.0,-100.00,WNW,295,8.0,12.0,76,-99.99,,,-99.99,,2013-05-26 03:00:00,
2013-05-25 20:53:00,39.0,32.0,-100.00,WNW,295,8.0,12.0,76,-99.99,,,-99.99,,2013-05-26 03:53:00,
2013-05-25 21:00:00,38.0,33.0,-100.00,WNW,291,6.0,15.0,81,-99.99,,,-99.99,,2013-05-26 04:00:00,
2013-05-25 21:52:00,38.0,33.0,-100.00,WNW,291,6.0,15.0,81,-99.99,,,-99.99,,2013-05-26 04:52:00,
2013-05-25 22:00:00,37.0,31.0,-100.00,WNW,301,3.0,10.0,80,-99.99,,,-99.99,,2013-05-26 05:00:00,
2013-05-25 22:52:00,37.0,31.0,-100.00,WNW,301,3.0,10.0,80,-99.99,,,-99.99,,2013-05-26 05:52:00,
2013-05-25 23:00:00,36.0,34.0,-100.00,NW,310,1.0,3.0,91,-99.99,,,-99.99,,2013-05-26 06:00:00,
2013-05-25 23:52:00,36.0,34.0,-100.00,NW,310,1.0,3.0,91,-99.99,,,-99.99,,2013-05-26 06:52:00,